Location: Medlow Airstrip Trail, Medlow Bath NSW 2780, Australia
(33.6682°S, 150.3233°E)
Time: 21:48:01
(UTC+11:00)

Explorer 11/Cluster Stage 4 - Pass Details

Date: 28 September 2019
Orbit: 467 x 1259 km, 28.8° (Epoch: 21 October)

Event Time Altitude Azimuth Distance (km) Brightness Sun altitude
Rises 06:43:04 0° 307° (NW) 2,522 8.8 12.1°
Reaches altitude 10° 06:45:23 10° 320° (NW) 1,693 8.0 12.6°
Maximum altitude 06:48:38 26° 18° (NNE) 1,080 7.8 13.2°
Drops below altitude 10° 06:52:19 10° 75° (ENE) 1,941 11.2 14.0°
Sets 06:55:09 0° 87° (E) 2,984 11.5 14.6°
